Tracking 29493 objects as of 8-Sep-2024
HD Live streaming from Space Station
objects crossing your sky now

COSMOS 2491 DEB

Track COSMOS 2491 DEB now!
10-day predictions


NORAD ID: 45128
Int'l Code: 2013-076Z
Perigee: 779.7 km
Apogee: 811.4 km
Inclination: 81.2 °
Period: 100.6 minutes
Semi major axis: 7166 km
RCS: Unknown
Launch date: December 25, 2013
Source: Commonwealth of Independent States (former USSR) (CIS)
Launch site: PLESETSK MISSILE AND SPACE COMPLEX (PKMTR)

Note: This is SATELLITE DEBRIS
Your satellite tracking list
Your tracking list is empty




NASA's NSSDC Master Catalog

Two Line Element Set (TLE):
1 45128U 13076AA  24222.54886516  .00013843  00000-0  52388-2 0  9999
2 45128  81.2112 331.3769 0022131  98.3536 262.0157 14.30986863235351
Source of the keplerian elements: AFSPC